Location: Godiavel Galaoual
(15.2485°N, 12.6604°W)
Time: 19:02:00
(UTC+00:00)

Tiros 1 - Visible Passes

Search period start: 18 June 2021 00:00
Search period end: 28 June 2021 00:00
Orbit: 630 x 664 km, 48.4° (Epoch: 18 June)

Date Brightness Start Highest point End Pass type
(mag) Time Alt. Az. Time Alt. Az. Time Alt. Az.
18 Jun 9.6 20:39:38 10° W 20:42:11 14° SW 20:44:44 10° SSW visible
20 Jun 9.6 19:49:00 10° W 19:51:57 16° SW 19:54:54 10° SSW visible
26 Jun 9.5 05:12:23 10° SSE 05:15:14 16° SE 05:18:06 10° E visible
27 Jun 7.7 05:36:33 10° SSW 05:41:01 52° SE 05:45:30 10° NE visible
